Zurück zum Katalog

STARLINK-2170

AktivKommunikationVLEO
NORAD 47753·PAYLOAD·🇺🇸 United States

Gestartet Mar 4, 2021 von Cape Canaveral Space Force Station

Loading…

Nächste Überflüge (nächste 24 Stunden)

TLE

AktuellSource: CelesTrak SupGP

Epoche: Sep 14, 2026, 21:17 UTC

1 47753C 21017AH  26257.88729167  .00083798  00000+0  25025-2 0  2574
2 47753  53.1598  43.1378 0001577 328.0717 109.9340 15.34010890    11

Verfolge STARLINK-2170 in Echtzeit mit AllMySat

Download on the App Store